{"data":{"norad_id":48768,"intl_designator":"2021-045B","name":"ONEWEB-0223","alt_names":[],"object_type":"PAYLOAD","status":"ACTIVE","operator":null,"country":"UK","launch_date":"2021-05-28","launch_site_code":"VOSTO","launch_vehicle":null,"mission":null,"orbit_class":"UNKNOWN","rcs_meters":null,"size_class":null,"mass_kg":null,"dimensions":null,"purposes":["comms"],"wikipedia_slug":null,"has_3d_model":false,"image_url":null,"decayed_at":null,"tle_current":{"epoch":"2026-05-25T01:43:26.963040Z","epoch_age_seconds":62062,"freshness":"FRESH","line1":"1 48768U 21045B   26145.07183985  .00000000  00000+0 -33883-4 0  9993","line2":"2 48768  87.8997 263.7945 0001496  95.9344 264.1957 13.15547421241366","mean_motion":13.15547421,"eccentricity":0.0001496,"inclination_deg":87.8997,"raan_deg":263.7945,"arg_perigee_deg":95.9344,"mean_anomaly_deg":264.1957,"bstar":-3.3883e-5,"rev_number":24136,"period_min":109.46013629105,"perigee_km":1200.6411493173,"apogee_km":1202.9090590188,"semimajor_km":7579.9121041681,"source":"CELESTRAK","updated_at":"2026-05-25T13:38:22.441375Z"}}}